Location: Bakov nad Jizerou
(50.4784°N, 14.9394°E)
Time: 23:45:44
(UTC+00:00)

SL-16 R/B - Pass Details

Date: 16 June 2021
Orbit: 843 x 845 km, 71.0° (Epoch: 23 July)

Event Time Altitude Azimuth Distance (km) Brightness Sun altitude
Rises 19:57:34 0° 200° (SSW) 3,389 5.1 -5.8°
Reaches altitude 10° 20:00:00 10° 199° (SSW) 2,458 4.3 -6.0°
Maximum altitude 20:05:37 73° 116° (ESE) 887 2.2 -6.6°
Drops below altitude 10° 20:11:17 10° 33° (NNE) 2,476 4.9 -7.2°
Sets 20:13:45 0° 31° (NNE) 3,416 5.6 -7.4°
